Content
SEND FEEDBACK

Daily
Averages
Monthly
Summary
United States of America

MARKSVILLE, LOUISIANA


Home > North America > United States > Louisiana
Elevation: 23 meters     Latitude: 31 05N     Longitude: 092 04W

WEATHER
 
SELECT A DAY
Number of Records: 218,930;   Date Range: 1/1/95 - 8/12/14
 
SHARE

PRINT THIS DATA

[ ← Previous Day ]
WEATHER ALMANAC - 31 JANUARY, 2013
[ Next Day → ]
[ °F ]   °C
Weather ElementAverageHighLow
Temperature8.4 °C17.2 °C (1:53 pm)-0.6 °C (5:53 am)
Dewpoint-1.8 °C1.7 °C (8:53 am)-6.1 °C (12:53 pm)
Humidity57 %92 % (2:53 am)21 % (12:53 pm)
Barometer1024.4 hPa1026.4 hPa (9:53 pm)1022.7 hPa (2:53 am)
Wind Speed6.9 km/h20.4 km/h (11:53 am)
Wind Gust25.9 km/h (1:53 pm)
Weather ElementAverage
Visibility16.1 km
Wind DirectionSSE (148.8 °)

Weather ElementTotal
Precipitation---
Heating Degree Days10.1 (Base 18.3)
Averaged from 24 records on 31 January, 2013
WEATHER CONDITIONS BREAKOUT
WIND DIRECTION BREAKOUT
WEATHER BY HOUR - 31 JANUARY, 2013
[ °F ]   °C
Local TimeTemperatureDewpointHumidityBarometerVisibilityWind DirectionWind SpeedGust SpeedPrecipitationEventsConditions
1:53 AM1.1 °C-0.6 °C89 %1023.4 hPa16.1 kmCalmClear
2:53 AM0.6 °C-0.6 °C92 %1022.7 hPa16.1 kmCalmClear
3:16 AM0 °C-2 °C87 %1022.7 hPa16.1 kmCalmPartly Cloudy
3:53 AM0 °C-1.1 °C92 %1022.7 hPa16.1 kmCalmClear
4:53 AM0 °C-1.7 °C88 %1022.7 hPa16.1 kmCalmClear
5:53 AM-0.6 °C-1.7 °C92 %1023 hPa16.1 kmCalmClear
6:53 AM-0.6 °C-2.2 °C89 %1023.4 hPa16.1 kmCalmClear
7:53 AM0.6 °C-0.6 °C92 %1024.4 hPa16.1 kmCalmClear
8:53 AM6.1 °C1.7 °C74 %1025.4 hPa16.1 kmWest (270°)7.4 km/hClear
9:53 AM10.6 °C0.6 °C50 %1026.1 hPa16.1 kmWest (260°)7.4 km/hClear
10:53 AM13.9 °C-3.9 °C29 %1026.1 hPa16.1 kmWSW (240°)14.8 km/hClear
11:53 AM15 °C-5 °C25 %1025.4 hPa16.1 kmWSW (250°)20.4 km/hClear
12:53 PM16.1 °C-6.1 °C21 %1024.4 hPa16.1 kmWSW (250°)18.5 km/hClear
1:53 PM17.2 °C-5.6 °C21 %1023.7 hPa16.1 kmWSW (240°)11.1 km/h25.9 km/hClear
2:53 PM17.2 °C-5.6 °C21 %1023.4 hPa16.1 kmWSW (240°)11.1 km/hClear
3:53 PM17.2 °C-4.4 °C23 %1023.4 hPa16.1 kmWSW (250°)13 km/hClear
4:53 PM16.7 °C-4.4 °C23 %1023.4 hPa16.1 kmSW (230°)13 km/hClear
5:53 PM13.9 °C-3.9 °C29 %1023.4 hPa16.1 kmSSW (200°)7.4 km/hClear
6:53 PM9.4 °C1.7 °C59 %1023.7 hPa16.1 kmCalmClear
7:53 PM11.1 °C0 °C47 %1024.4 hPa16.1 kmSSW (210°)9.3 km/hClear
8:53 PM10 °C0.6 °C52 %1026.1 hPa16.1 kmWSW (240°)11.1 km/hClear
9:53 PM8.9 °C0 °C54 %1026.4 hPa16.1 kmSW (230°)9.3 km/hClear
10:53 PM8.9 °C0.6 °C56 %1026.4 hPa16.1 kmSW (230°)7.4 km/hClear
11:53 PM7.8 °C1.1 °C63 %1026.4 hPa16.1 kmSW (230°)5.6 km/hClear
Hourly data recorded from KESF, located 0 kilometers away from Marksville, Louisiana







STORIES FROM OUR PARTNERS